Location: Grums
(59.3529°N, 13.1129°E)
Time: 00:37:49
(UTC+01:00)

SEEDS - Pass Details

Date: 07 December 2021
Orbit: 584 x 600 km, 97.6° (Epoch: 27 January)

Event Time Altitude Azimuth Distance (km) Brightness Sun altitude
Rises 16:42:14 0° 203° (SSW) 2,820 ? -10.2°
Reaches altitude 10° 16:44:48 10° 219° (SW) 1,921 ? -10.5°
Maximum altitude 16:48:04 22° 270° (W) 1,320 ? -10.8°
Drops below altitude 10° 16:51:19 10° 322° (NW) 1,926 ? -11.2°
Sets 16:53:54 0° 338° (NNW) 2,830 ? -11.5°
